Tracking 19242 objects as of 16-Aug-2018
HD Live streaming from Space Station
objects crossing your sky now

CSUNSAT1

Track CSUNSAT1 now!
10-day predictions
CSUNSAT1 is classified as:


NORAD ID: 42715
Int'l Code: 1998-067LW
Perigee: 361.7 km
Apogee: 365.8 km
Inclination: 51.6 °
Period: 91.7 minutes
Semi major axis: 6734 km
RCS: Unknown
Launch date: November 20, 1998
Source: United States (US)
Launch site: TYURATAM MISSILE AND SPACE COMPLEX (TTMTR)
Uplink (MHz):
Downlink (MHz): 437.400
Beacon (MHz): 437.400
Mode: 9600bps GMSK CW
Call sign: CSUNSAT1
Status: Active

aabbcc
Your satellite tracking list
Your tracking list is empty




NASA's NSSDC Master Catalog

Two Line Element Set (TLE):
1 42715U 98067LW  18227.93720787  .00025895  00000-0  20808-3 0  9992
2 42715  51.6350  53.7648 0003028  46.6798 313.4452 15.70788191 70924
Source of the keplerian elements: AFSPC